Location: Eenumerhoogte
(53.3420°N, 6.7843°E)
Time: 10:57:01
(UTC+00:00)

SL-16 R/B - Pass Details

Date: 15 May 2026
Orbit: 841 x 844 km, 71.0° (Epoch: 7 June)

Event Time Altitude Azimuth Distance (km) Brightness Sun altitude
Rises 21:03:31 0° 324° (NW) 3,416 7.6 -11.1°
Reaches altitude 10° 21:06:07 10° 317° (NW) 2,477 6.2 -11.3°
Maximum altitude 21:11:20 39° 251° (WSW) 1,251 3.2 -11.8°
Drops below altitude 10° 21:16:31 10° 184° (S) 2,461 4.1 -12.2°
Enters shadow 21:16:34 10° 184° (S) 2,479 4.2 -12.2°
